Weather Roundup
Issued by NWS Chicago, IL

Home | Current Version | Previous Version | Graphics & Text | Print | Product List | Glossary On
Versions: 1 2 3 4 5 6 7 8 9 10 11 12 13 14 15 16 17 18 19 20 21 22 23 24 25 26 27 28 29 30 31 32 33 34 35 36 37 38 39 40 41 42 43 44 45 46 47 48 49 50
000
NZUS59 KLOT 010410
HRRLOT

CHICAGO AREA WEATHER ROUNDUP
NATIONAL WEATHER SERVICE CHICAGO/ROMEOVILLE IL
1100 PM CDT TUE SEP 30 2014

NOTE: "FAIR" INDICATES FEW OR NO CLOUDS BELOW 12,000 FEET WITH NO
SIGNIFICANT WEATHER AND/OR OBSTRUCTIONS TO VISIBILITY.

* THESE STATIONS ARE NOT UNDER NWS QUALITY CONTROL. THEY ALSO MAY NOT
  REPORT WEATHER SUCH AS PRECIPITATION OR FOG.

ILZ005-006-012>014-019>023-010500-
NORTHEAST ILLINOIS

CITY           SKY/WX    TMP DP  RH WIND       PRES   REMARKS
OHARE          CLOUDY    55  47  74 E7        30.02S
MIDWAY         CLOUDY    58  48  69 E7        30.02S
AURORA         CLOUDY    54  47  77 NE6       30.02F
LANSING*       MOCLDY    51  46  82 E5        30.03S
JOLIET*        CLOUDY    54  49  85 NE6       30.02S
WAUKEGAN       CLOUDY    52  50  93 NW3       30.03S
DUPAGE AIRPORT CLOUDY    54  49  83 NE5       30.02S
WHEELING       CLOUDY    56  49  77 CALM      30.03S
KANKAKEE*      PTCLDY    49  46  88 NE7       30.03S
MORRIS*        CLOUDY    54  50  87 E5        30.01S
LEWIS AIRPORT* CLOUDY    54  49  83 E6        30.02F
NORTHERLY IS     N/A     56  48  74 E10         N/A
$$

WIZ051-052-058>065-066-070>072-010500-
SOUTHEAST WISCONSIN

CITY           SKY/WX    TMP DP  RH WIND       PRES   REMARKS
MILWAUKEE      MOCLDY    51  49  92 NW6       30.04F
KENOSHA*       CLOUDY    52  50  93 N3        30.04F
RACINE*        CLOUDY    54  47  77 NE3       30.05F
BURLINGTON     CLOUDY    47  47  99 N3        30.04F FOG
WAUKESHA       DRIZZLE   45  45 100 CALM      30.06S
WEST BEND      DRIZZLE   46  45  93 N3        30.05F
$$

INZ001>003-010>013-019-020-010500-
NORTHWEST INDIANA

CITY           SKY/WX    TMP DP  RH WIND       PRES   REMARKS
GARY*          MOCLDY    55  46  74 E5        30.04S
MICHIGAN CITY* NOT AVBL
RENSSELAER*    NOT AVBL
VALPARAISO     CLOUDY    51  46  83 NE3       30.03F
$$

LMZ740>746-010500-
SOUTHERN LAKE MICHIGAN

STATION/POSITION TIME  SKY/WX   TEMP WIND        PRES    VSBY
                                AIR  DIR/SP/G
                 (UTC)          (F)  (DEG/KT/KT) (MB)    (MI)
HARRISON CRIB    0400            56  100/ 13/ 17   N/A
BURNHAM HARBOR   0400            56   80/  9/ 13   N/A
CALUMET HARBOR   0400            56   40/  6/ 11 1015.6S
BURNS HARBOR     NOT AVBL
MICHIGAN CITY    0400            53   60/  4/  5   N/A
$$

ABBREVIATIONS USED IN REMARKS
   TC - TEMPERATURE IN CELSIUS
  WCI - WIND CHILL INDEX
   HX - HEAT INDEX
  VSB - VISIBILITY
$$



USA.gov is the U.S. government's official web portal to all federal, state and local government web resources and services.